Tracking 35048 objects as of 19-Aug-2026
HD Live streaming from Space Station
objects crossing your sky now

OBJECT F

Track OBJECT F now!
10-day predictions


NORAD ID: 44884
Int'l Code: 2019-093F
Launch date: December 20, 2019
Source: (TBD)
Launch site: Taiyaun Space Center, China (TSC)

Note: This is a ROCKET BODY
Your satellite tracking list
Your tracking list is empty




NASA's NSSDC Master Catalog

Two Line Element Set (TLE):
1 44884U 19093F   26230.92313119  .00002720  00000-0  21695-3 0  9999
2 44884  97.7910 320.9484 0014333 179.2972 180.8275 15.01102896361839
Source of the keplerian elements: AFSPC